Форум фильмов, сериалов и мультфильмов

Объявление

Информация о пользователе

Привет, Гость! Войдите или зарегистрируйтесь.


Вы здесь » Форум фильмов, сериалов и мультфильмов » Зарубежная музыка


Зарубежная музыка

Тем 15061 страница 15090 из 21035

Тема Ответов Просмотров Последнее сообщение
15061 Blue Moon - Reminisce  magikgate
0 4 23.03.2015 21:47:19  magikgate
0 5 23.03.2015 21:42:13  magikgate
0 2 23.03.2015 21:36:55  magikgate
15064 Pobsky - Chasing Forests  magikgate
0 2 23.03.2015 21:01:45  magikgate
0 2 23.03.2015 20:53:51  magikgate
15066 Blue Moon - Forever  magikgate
0 3 23.03.2015 20:48:23  magikgate
0 2 23.03.2015 20:41:21  magikgate
0 2 23.03.2015 20:13:11  magikgate
0 2 23.03.2015 19:34:23  magikgate
15070 Tuomas.L - Afterlife  magikgate
0 2 23.03.2015 19:29:07  magikgate
0 2 23.03.2015 19:23:31  magikgate
0 2 23.03.2015 19:18:06  magikgate
0 14 23.03.2015 19:13:05  magikgate
15074 NDsounds - Dimension  magikgate
0 2 23.03.2015 18:56:05  magikgate
15075 Myk Bee - Essences  magikgate
0 2 23.03.2015 18:51:17  magikgate
0 2 23.03.2015 18:44:25  magikgate
0 4 23.03.2015 18:36:53  magikgate
0 6 23.03.2015 18:31:21  magikgate
0 8 23.03.2015 18:26:49  magikgate
15080 Bilal El Aly - Memories  magikgate
0 1 23.03.2015 18:21:41  magikgate
15081 4 Strings - Take Me Away  magikgate
0 2 23.03.2015 18:16:20  magikgate
0 3 23.03.2015 16:53:00  magikgate
0 3 23.03.2015 16:51:33  magikgate
0 1 23.03.2015 16:42:20  magikgate
15085 Nianaro - Cyborgs  magikgate
0 1 23.03.2015 16:37:28  magikgate
15086 Mcaree & Clancy - Morrigan  magikgate
0 1 23.03.2015 16:30:26  magikgate
0 1 23.03.2015 16:22:50  magikgate
15088 Leolife - Raider  magikgate
0 1 23.03.2015 16:17:24  magikgate
15089 Kinetica - One Dream  magikgate
0 1 23.03.2015 16:10:16  magikgate
0 1 23.03.2015 16:04:03  magikgate

Вы здесь » Форум фильмов, сериалов и мультфильмов » Зарубежная музыка